Latest Weather Observations for Swan Hill

IDN60801

Issued at 8:05 pm EST Monday 22 September 2014 (issued every 30 minutes, with the page automatically refreshed every 10 minutes)

About weather observations | Map of weather stations | Latest weather observations for NSW | Other Formats
Station Details ID: 077094 Name: SWAN HILL AERODROME Lat: -35.38 Lon: 143.54 Height: 71.0 m
Data from the previous 72 hours. | See also: Recent months at Swan Hill
Date/Time
EST
Temp
°C
App
Temp
°C
Dew
Point
Rel
Hum
%
Delta-T
°C
Wind Press
QNH
hPa
Press
MSL
hPa
Rain
since 9 am
mm
Dir
 
Spd
km/h
Gust
km/h
Spd
kts
Gust
kts
22/08:00pm 13.6 10.4 0.8 41 5.4 E 7 9 4 5 1025.7 - 0.0
22/07:30pm 15.2 11.9 0.4 36 6.3 E 7 9 4 5 1025.3 - 0.0
22/07:00pm 17.3 14.0 -0.2 30 7.5 E 7 9 4 5 1025.0 - 0.0
22/06:30pm 19.4 15.6 -0.7 26 8.7 E 9 11 5 6 1024.7 - 0.0
22/06:00pm 21.3 17.4 -1.2 22 9.8 E 9 13 5 7 1024.5 1024.5 0.0
22/05:30pm 23.1 18.8 -1.9 19 11.0 E 11 19 6 10 1024.4 - 0.0
22/05:00pm 23.7 19.4 -1.8 18 11.3 NE 11 17 6 9 1024.4 - 0.0
22/04:30pm 24.2 19.6 -4.3 15 12.0 NE 11 17 6 9 1024.2 - 0.0
22/04:00pm 24.2 18.9 -3.8 15 12.0 ENE 15 20 8 11 1024.4 - 0.0
22/03:30pm 24.5 19.3 -3.0 16 11.9 NE 15 22 8 12 1024.7 - 0.0
22/03:00pm 25.3 21.2 -2.9 15 12.3 N 9 17 5 9 1025.0 1025.0 0.0
22/02:30pm 24.6 19.1 -2.3 16 11.9 NE 17 24 9 13 1025.3 - 0.0
22/02:00pm 24.6 19.0 -3.3 15 12.1 N 17 24 9 13 1025.6 - 0.0
22/01:30pm 24.1 19.1 -1.3 18 11.4 NE 15 30 8 16 1025.9 - 0.0
22/01:00pm 23.5 17.8 -1.0 19 11.0 NNE 19 26 10 14 1026.4 - 0.0
22/12:30pm 23.2 18.1 -2.1 18 11.1 N 15 24 8 13 1027.0 - 0.0
22/12:00pm 22.8 18.3 -0.5 21 10.4 NNE 13 24 7 13 1027.5 1027.6 0.0
22/11:30am 22.1 17.8 0.8 24 9.8 NE 13 22 7 12 1028.0 - 0.0
22/11:00am 21.0 16.4 1.6 27 8.9 NE 15 20 8 11 1028.4 - 0.0
22/10:30am 20.1 16.0 4.5 36 7.6 ENE 15 24 8 13 1028.6 - 0.0
22/10:00am 19.4 15.1 5.2 39 6.9 ENE 17 26 9 14 1029.0 - 0.0
22/09:30am 17.4 14.1 6.6 49 5.4 ENE 13 20 7 11 1029.3 - 0.0
22/09:00am 14.3 11.4 6.6 60 3.7 ENE 11 17 6 9 1029.4 1029.5 0.0
22/08:30am 12.0 9.0 6.2 67 2.7 E 11 15 6 8 1029.6 - 0.0
22/08:00am 8.9 6.1 5.3 78 1.6 SE 9 13 5 7 1029.7 - 0.0
22/07:30am 5.8 3.1 3.6 86 0.9 SE 7 11 4 6 1029.4 - 0.0
22/07:00am 3.5 0.6 2.5 93 0.4 SE 7 11 4 6 1029.1 - 0.0
22/06:30am 2.3 -1.6 1.2 92 0.4 SE 11 13 6 7 1028.7 - 0.0
22/06:00am 2.0 -1.9 1.2 94 0.3 SE 11 13 6 7 1028.3 1028.5 0.0
22/05:30am 2.5 -1.3 1.5 93 0.4 SE 11 13 6 7 1028.1 - 0.0
22/05:00am 2.6 -0.9 1.3 91 0.5 SE 9 13 5 7 1027.9 - 0.0
22/04:30am 2.9 -0.5 1.9 93 0.4 SE 9 11 5 6 1027.7 - 0.0
22/04:00am 3.1 -0.7 1.8 91 0.5 SE 11 13 6 7 1027.5 - 0.0
22/03:30am 3.0 -0.4 1.7 91 0.5 ESE 9 13 5 7 1027.6 - 0.0
22/03:00am 3.0 -0.5 1.4 89 0.6 ESE 9 11 5 6 1027.6 1027.7 0.0
22/02:30am 3.4 0.3 1.3 86 0.8 ESE 7 9 4 5 1027.8 - 0.0
22/02:00am 3.8 0.0 1.8 87 0.8 ESE 11 13 6 7 1028.0 - 0.0
22/01:30am 3.6 0.6 1.8 88 0.7 ESE 7 9 4 5 1028.1 - 0.0
22/01:00am 3.6 0.8 1.8 88 0.7 ESE 6 7 3 4 1028.4 - 0.0
22/12:30am 4.0 1.2 2.0 87 0.8 ESE 6 7 3 4 1028.3 - 0.0
22/12:00am 4.1 2.3 1.3 82 1.1 ESE 0 0 0 0 1028.5 1028.6 0.0
 
Date/Time
EST
Temp
°C
App
Temp
°C
Dew
Point
Rel
Hum
%
Delta-T
°C
Wind Press
QNH
hPa
Press
MSL
hPa
Rain
since 9 am
mm
Dir
 
Spd
km/h
Gust
km/h
Spd
kts
Gust
kts
21/11:30pm 5.4 3.8 2.4 81 1.2 CALM 0 0 0 0 1028.6 - 0.0
21/11:00pm 5.3 3.5 1.5 76 1.5 CALM 0 0 0 0 1028.6 - 0.0
21/10:30pm 5.6 3.9 2.1 78 1.4 CALM 0 6 0 3 1028.6 - 0.0
21/10:00pm 5.9 3.6 2.5 79 1.4 ESE 4 6 2 3 1028.6 - 0.0
21/09:30pm 6.5 3.6 2.6 76 1.6 ESE 7 9 4 5 1028.4 - 0.0
21/09:00pm 9.2 6.3 2.8 64 2.7 ESE 7 9 4 5 1028.3 1028.4 0.0
21/08:30pm 10.6 7.9 3.8 63 3.0 ESE 7 9 4 5 1028.1 - 0.0
21/08:00pm 11.8 9.0 3.4 56 3.7 ESE 7 9 4 5 1027.8 - 0.0
21/07:30pm 13.8 11.2 4.4 53 4.3 E 7 9 4 5 1027.6 - 0.0
21/07:00pm 14.8 12.2 4.4 49 4.8 ESE 7 9 4 5 1027.4 - 0.0
21/06:30pm 16.3 13.3 4.0 44 5.7 ESE 9 11 5 6 1027.2 - 0.0
21/06:00pm 18.2 15.0 3.3 37 6.9 ESE 9 13 5 7 1026.9 1027.0 0.0
21/05:30pm 19.6 15.5 2.1 31 8.1 ESE 13 17 7 9 1026.8 - 0.0
21/05:00pm 20.7 16.3 0.3 25 9.1 SE 13 17 7 9 1026.8 - 0.0
21/04:30pm 21.5 17.3 -1.2 22 9.9 SSE 11 17 6 9 1026.9 - 0.0
21/04:00pm 21.0 16.4 -1.1 22 9.7 SE 13 20 7 11 1027.1 - 0.0
21/03:30pm 21.6 17.5 -0.2 23 9.8 S 11 20 6 11 1027.3 - 0.0
21/03:00pm 21.4 16.8 -1.1 22 9.8 SSE 13 22 7 12 1027.6 1027.7 0.0
21/02:30pm 20.6 16.7 1.2 27 8.8 E 11 19 6 10 1027.8 - 0.0
21/02:00pm 20.1 16.7 2.0 30 8.4 SE 9 19 5 10 1028.1 - 0.0
21/01:30pm 19.8 15.9 1.1 28 8.5 E 11 17 6 9 1028.5 - 0.0
21/01:00pm 19.8 16.1 2.5 31 8.0 NE 11 15 6 8 1028.9 - 0.0
21/12:30pm 18.4 15.5 2.4 34 7.3 ESE 7 13 4 7 1029.5 - 0.0
21/12:00pm 17.6 14.6 4.2 41 6.3 ENE 9 13 5 7 1029.9 1029.9 0.0
21/11:30am 17.4 14.0 4.2 41 6.2 E 11 15 6 8 1030.2 - 0.0
21/11:00am 16.1 12.7 4.0 44 5.6 E 11 19 6 10 1030.5 - 0.0
21/10:30am 15.6 12.3 4.4 47 5.2 ESE 11 15 6 8 1030.6 - 0.0
21/10:00am 14.4 10.7 4.4 51 4.6 ESE 13 22 7 12 1030.8 - 0.0
21/09:30am 13.7 9.2 4.3 53 4.3 SE 17 24 9 13 1030.9 - 0.0
21/09:00am 11.8 7.3 4.2 59 3.4 SE 17 24 9 13 1030.6 1030.7 0.0
21/08:30am 10.4 5.5 4.0 64 2.8 SE 19 30 10 16 1030.6 - 0.0
21/08:00am 8.4 4.2 4.0 74 1.9 SE 15 20 8 11 1030.4 - 0.0
21/07:30am 6.0 2.5 3.4 83 1.1 SSE 11 15 6 8 1030.2 - 0.0
21/07:00am 3.9 1.0 2.4 90 0.6 SSE 7 9 4 5 1030.1 - 0.0
21/06:30am 3.3 0.3 2.0 91 0.5 SE 7 9 4 5 1029.7 - 0.0
21/06:00am 4.3 0.3 2.6 89 0.7 SSE 13 17 7 9 1029.4 1029.5 0.0
21/05:30am 5.1 0.7 2.9 86 0.9 SSE 15 22 8 12 1029.4 - 0.0
21/05:00am 4.9 0.2 2.9 87 0.8 S 17 22 9 12 1028.9 - 0.0
21/04:30am 2.7 -1.2 1.4 91 0.5 SSE 11 17 6 9 1028.3 - 0.0
21/04:00am 2.6 -0.5 1.6 93 0.4 SSE 7 9 4 5 1027.8 - 0.0
21/03:30am 3.0 -0.4 2.0 93 0.4 SSE 9 11 5 6 1027.7 - 0.0
21/03:00am 3.1 -0.4 1.5 89 0.6 SSE 9 13 5 7 1027.7 1027.8 0.0
21/02:30am 3.4 0.4 2.1 91 0.5 SE 7 11 4 6 1028.1 - 0.0
21/02:00am 3.6 0.2 2.1 90 0.6 SSE 9 9 5 5 1028.3 - 0.0
21/01:30am 4.1 1.1 2.3 88 0.7 SSE 7 7 4 4 1028.5 - 0.0
21/01:00am 4.6 1.7 2.4 86 0.9 SSE 7 9 4 5 1028.9 - 0.0
21/12:30am 4.9 2.2 2.7 86 0.9 SSE 6 7 3 4 1029.0 - 0.0
21/12:00am 4.2 2.1 1.6 83 1.0 SE 2 6 1 3 1028.9 1029.0 0.0
 
Date/Time
EST
Temp
°C
App
Temp
°C
Dew
Point
Rel
Hum
%
Delta-T
°C
Wind Press
QNH
hPa
Press
MSL
hPa
Rain
since 9 am
mm
Dir
 
Spd
km/h
Gust
km/h
Spd
kts
Gust
kts
20/11:30pm 7.2 4.1 3.4 77 1.6 SE 9 13 5 7 1029.0 - 0.0
20/11:00pm 7.8 5.1 3.6 75 1.8 SE 7 13 4 7 1029.0 - 0.0
20/10:30pm 8.1 4.5 2.9 70 2.2 SE 11 15 6 8 1028.8 - 0.0
20/10:00pm 8.3 5.0 2.3 66 2.5 SE 9 13 5 7 1028.8 - 0.0
20/09:30pm 8.9 5.4 1.3 59 3.1 SE 9 13 5 7 1028.6 - 0.0
20/09:00pm 9.7 5.3 0.2 51 3.8 SSE 13 15 7 8 1028.2 1028.3 0.0
20/08:30pm 9.8 5.8 0.7 53 3.7 SSW 11 13 6 7 1027.9 - 0.0
20/08:00pm 9.2 7.3 0.8 55 3.4 CALM 0 0 0 0 1027.4 - 0.0
20/07:30pm 11.7 9.9 1.5 49 4.3 CALM 0 0 0 0 1027.1 - 0.0
20/07:00pm 13.1 10.0 1.4 45 5.0 SSE 7 9 4 5 1026.6 - 0.0
20/06:30pm 15.2 12.0 0.7 37 6.2 SSE 7 11 4 6 1026.4 - 0.0
20/06:00pm 17.2 13.0 -0.8 29 7.6 SSE 11 15 6 8 1026.0 1026.0 0.0
20/05:30pm 18.6 14.3 -1.6 25 8.6 S 11 19 6 10 1025.6 - 0.0
20/05:00pm 19.4 14.7 -2.0 23 9.1 S 13 24 7 13 1025.2 - 0.0
20/04:30pm 19.6 14.8 -2.8 22 9.3 SSE 13 32 7 17 1025.0 - 0.0
20/04:00pm 19.8 14.5 -3.3 21 9.6 SSE 15 24 8 13 1025.0 - 0.0
20/03:30pm 19.2 14.3 -0.7 26 8.6 SE 15 26 8 14 1025.1 - 0.0
20/03:00pm 19.5 15.3 -0.9 25 8.8 S 11 20 6 11 1025.1 1025.1 0.0
20/02:30pm 19.2 15.1 -0.4 26 8.6 SE 11 22 6 12 1025.2 - 0.0
20/02:00pm 18.9 14.0 -0.6 27 8.5 SSW 15 24 8 13 1025.5 - 0.0
20/01:30pm 18.7 14.2 -0.2 28 8.2 SSW 13 22 7 12 1025.8 - 0.0
20/01:00pm 17.7 12.1 0.2 30 7.6 SSE 19 28 10 15 1026.2 - 0.0
20/12:30pm 17.7 12.9 0.5 31 7.5 S 15 32 8 17 1026.6 - 0.0
20/12:00pm 16.6 11.0 0.0 32 7.1 SSW 19 33 10 18 1027.4 1027.5 0.0
20/11:30am 16.0 10.2 0.0 33 6.8 S 20 33 11 18 1027.6 - 0.0
20/11:00am 16.4 11.7 0.7 34 6.8 S 15 24 8 13 1027.7 - 0.0
20/10:30am 15.0 9.9 0.7 37 6.2 S 17 28 9 15 1027.9 - 0.0
20/10:00am 14.2 8.8 1.4 42 5.5 SSE 19 30 10 16 1028.2 - 0.0
20/09:30am 13.1 7.8 1.7 46 4.9 SE 19 28 10 15 1028.2 - 0.0
20/09:00am 12.4 7.6 2.5 51 4.3 SE 17 26 9 14 1028.1 1028.2 0.0
20/08:30am 10.9 6.6 3.1 58 3.4 SE 15 22 8 12 1027.9 - 0.0
20/08:00am 8.5 5.1 3.9 73 2.0 SSE 11 19 6 10 1027.7 - 0.0
20/07:30am 5.7 3.0 3.8 87 0.8 S 7 9 4 5 1027.4 - 0.0
20/07:00am 3.8 0.9 2.8 93 0.4 S 7 11 4 6 1027.0 - 0.0
20/06:30am 2.5 -1.0 1.5 93 0.4 S 9 9 5 5 1026.6 - 0.0
20/06:00am 2.6 -0.8 1.6 93 0.4 S 9 11 5 6 1026.1 1026.1 0.0
20/05:30am 2.5 -0.6 1.5 93 0.4 S 7 9 4 5 1025.8 - 0.0
20/05:00am 2.7 -0.8 1.1 89 0.6 S 9 11 5 6 1025.2 - 0.0
20/04:30am 2.5 -0.6 1.2 91 0.5 S 7 11 4 6 1025.1 - 0.0
20/04:00am 2.8 -0.3 1.2 89 0.6 S 7 11 4 6 1025.1 - 0.0
20/03:30am 3.1 -0.4 1.0 86 0.8 S 9 11 5 6 1025.0 - 0.0
20/03:00am 3.5 -0.1 0.9 83 1.0 S 9 11 5 6 1025.0 1025.0 0.0
20/02:30am 3.9 0.4 1.0 81 1.1 S 9 11 5 6 1025.0 - 0.0
20/02:00am 4.4 0.9 1.0 78 1.3 S 9 11 5 6 1025.0 - 0.0
20/01:30am 4.4 0.7 0.2 74 1.6 S 9 11 5 6 1025.2 - 0.0
20/01:00am 4.1 0.4 0.1 75 1.5 S 9 11 5 6 1025.2 - 0.0
20/12:30am 4.5 1.2 0.0 72 1.7 S 7 9 4 5 1024.9 - 0.0
20/12:00am 5.1 1.7 -0.8 65 2.2 S 7 9 4 5 1024.7 1024.7 0.0
 
Date/Time
EST
Temp
°C
App
Temp
°C
Dew
Point
Rel
Hum
%
Delta-T
°C
Wind Press
QNH
hPa
Press
MSL
hPa
Rain
since 9 am
mm
Dir
 
Spd
km/h
Gust
km/h
Spd
kts
Gust
kts
19/11:30pm 5.7 1.9 -1.0 62 2.5 S 9 11 5 6 1024.8 - 0.0
19/11:00pm 6.2 2.8 -0.4 62 2.5 S 7 9 4 5 1025.0 - 0.0
19/10:30pm 6.7 3.2 -1.0 58 2.9 S 7 7 4 4 1025.1 - 0.0
19/10:00pm 7.3 3.4 -1.2 55 3.2 S 9 11 5 6 1025.1 - 0.0
19/09:30pm 8.2 4.3 -1.6 50 3.7 S 9 11 5 6 1025.0 - 0.0
19/09:00pm 8.8 4.9 -1.7 47 4.0 S 9 15 5 8 1024.8 1024.9 0.0
19/08:30pm 10.3 5.9 -2.7 40 4.9 S 11 13 6 7 1024.6 - 0.0

Other Formats:

Comma delimited format used in spreadsheet applications
http://www.bom.gov.au/fwo/IDN60801/IDN60801.94843.axf

JavaScript Object Notation format (JSON) in row-major order
http://www.bom.gov.au/fwo/IDN60801/IDN60801.94843.json